Tracking 25656 objects as of 22-May-2022
HD Live streaming from Space Station
objects crossing your sky now

ICON

Track ICON now!
10-day predictions


NORAD ID: 44628
Int'l Code: 2019-068A
Perigee: 583.4 km
Apogee: 609.5 km
Inclination: 27.0 °
Period: 96.5 minutes
Semi major axis: 6967 km
RCS: Unknown
Launch date: October 11, 2019
Source: United States (US)
Launch site: Pegasus launched from Eastern Range Air Space (ERAS)
aabbcc
Your satellite tracking list
Your tracking list is empty




NASA's NSSDC Master Catalog

Two Line Element Set (TLE):
1 44628U 19068A   22141.35799904  .00004639  00000-0  41814-3 0  9997
2 44628  26.9885 125.7105 0018710  52.4673 307.7583 14.92756725142513
Source of the keplerian elements: AFSPC